Location: Unspecified
(38.0989°N, 0.6729°W)
Time: 00:38:37
(UTC+02:00)

Mayak - Visible Passes

Search period start: 24 July 2017 00:00
Search period end: 03 August 2017 00:00
Orbit: 586 x 605 km, 97.6° (Epoch: 22 July)

Date Brightness Start Highest point End Pass type
(mag) Time Alt. Az. Time Alt. Az. Time Alt. Az.
24 Jul 1.4 00:59:43 10° NE 01:00:11 12° NE 01:00:11 12° NE visible
24 Jul 1.0 02:34:55 10° NNW 02:36:50 21° NNW 02:36:50 21° NNW visible
25 Jul 1.3 01:09:11 10° NE 01:10:02 14° NE 01:10:02 14° NE visible
25 Jul 1.1 02:45:01 10° NNW 02:46:42 18° NW 02:46:42 18° NW visible
26 Jul 1.2 01:18:47 10° NNE 01:19:53 17° NE 01:19:53 17° NE visible
26 Jul 1.3 02:55:12 10° NNW 02:56:33 15° NW 02:56:33 15° NW visible
27 Jul 1.1 01:28:26 10° NNE 01:29:45 19° NNE 01:29:45 19° NNE visible
27 Jul 1.5 03:05:33 10° NW 03:06:24 12° NW 03:06:24 12° NW visible
28 Jul 1.1 01:38:09 10° NNE 01:39:36 21° NNE 01:39:36 21° NNE visible
29 Jul 1.1 01:47:54 10° NNE 01:49:26 22° NNE 01:49:26 22° NNE visible
30 Jul 1.1 01:57:43 10° N 01:59:17 22° N 01:59:17 22° N visible
31 Jul 1.1 02:07:35 10° N 02:09:08 22° N 02:09:08 22° N visible
01 Aug 1.2 02:17:29 10° N 02:18:58 20° NNW 02:18:58 20° NNW visible
02 Aug 1.3 02:27:27 10° N 02:28:48 18° NNW 02:28:48 18° NNW visible
